Location: Unspecified
(0.0000°N, 0.0000°E)
Time: 22:27:25
(UTC+00:00)

Transit 2A - Pass Details

Date: 30 May 2024
Orbit: 592 x 959 km, 66.7° (Epoch: 24 June)

Event Time Altitude Azimuth Distance (km) Brightness Sun altitude
Rises 20:01:59 0° 235° (SW) 2,821 9.3 -28.6°
Reaches altitude 10° 20:05:17 10° 262° (W) 1,929 8.8 -29.3°
Maximum altitude 20:07:21 13° 291° (WNW) 1,741 8.7 -29.8°
Drops below altitude 10° 20:09:26 10° 320° (NW) 1,967 8.9 -30.3°
Sets 20:12:53 0° 348° (NNW) 2,925 9.5 -31.1°
